User: anonymous   Login
Location: Unspecified
(0.0000°N, 0.0000°E)
Time: 16:44:50
(UTC+00:00)
Language:

Vela 2A - Orbit

View from above orbital plane
View from above orbital plane
View from above satellite
View from above satellite

Ground track
Ground track

The orbit data is extracted from the following two-line orbital elements,

1   836U 64040A   19100.51506547  .00000344  00000-0  00000+0 0  9995
2   836  59.6979 296.3610 7751348 212.1424   1.6620  0.23922826 47800
Epoch (UTC): 10 April 2019 12:21:41
Eccentricity: 0.7751348
inclination: 59.6979°
perigee height: 18269 km
apogee height: 188197 km
right ascension of ascending node: 296.3610°
argument of perigee: 212.1424°
revolutions per day: 0.23922826
mean anomaly at epoch: 1.6620°
orbit number at epoch: 4780

The dashed part of the orbit path shows where the satellite is in the earth's shadow,  

DLR